Ft Riley, KS

4:00 AM CST on December 10, 2019 (GMT -0600)
Marshall Army Air Field

Weather History for KFRI - November, 2019

Change the Weather History Date:

Saturday, November 16, 2019

  Actual Average (WUND) Record (WUND)
Temperature  
Mean Temperature 52 °F -  
Max Temperature 64 °F - - (-1)
Min Temperature 39 °F - - (-1)
Degree Days  
Heating Degree Days 14    
Growing Degree Days 2 (Base 50)    
Moisture  
Dew Point 29 °F    
Average Humidity 44    
Maximum Humidity 59    
Minimum Humidity 27    
Precipitation  
Precipitation 0.00 in - - ()
Sea Level Pressure  
Sea Level Pressure 30.06 in    
Wind  
Wind Speed 10 mph ()    
Max Wind Speed 20 mph    
Max Gust Speed 25 mph    
Visibility 10.0 miles    
Events      
Averages and records for this station are not official NWS values.
T = Trace of Precipitation, MM = Missing Value Source: Averaged Metar Reports

Daily Weather History Graph

Daily Weather History Graph

Search for Another Location

Airport or City:

Astronomy

Nov. 16, 2019 Rise Set
Actual Time 7:10 AM CST 5:12 PM CST
Civil Twilight 6:42 AM CST 5:40 PM CST
Nautical Twilight 6:09 AM CST 6:13 PM CST
Astronomical Twilight 5:38 AM CST 6:44 PM CST
Moon 8:47 PM CST (11/16) 11:05 AM CST (11/16)
Length of Visible Light 10h 58m
Length of Day
10h 01m
Waning Gibbous, 82% of the Moon is Illuminated
Nov 16
Waning Gibbous
Nov 19
Last Quarter
Nov 26
New
Dec 4
First Quarter
Dec 11
Full

Hourly Weather History & Observations

Time (CST) Temp. Windchill Dew Point Humidity Pressure Visibility Wind Dir Wind Speed Gust Speed Precip Events Conditions
12:56 AM 41.9 °F 36.9 °F 27.3 °F 56% 30.19 in 10.0 mi SSE 8.1 mph - N/A   Clear
1:56 AM 41.2 °F 36.6 °F 27.1 °F 57% 30.18 in 10.0 mi SSE 6.9 mph - N/A   Clear
2:56 AM 42.3 °F 35.1 °F 26.8 °F 54% 30.16 in 10.0 mi South 13.8 mph - N/A   Clear
3:56 AM 42.6 °F 36.3 °F 26.6 °F 53% 30.16 in 10.0 mi SSE 11.5 mph 19.6 mph N/A   Clear
4:56 AM 42.3 °F 36.8 °F 26.4 °F 54% 30.15 in 10.0 mi SSE 9.2 mph - N/A   Clear
5:56 AM 41.0 °F 34.3 °F 26.1 °F 55% 30.16 in 10.0 mi South 11.5 mph - N/A   Clear
6:56 AM 39.6 °F 34.0 °F 26.4 °F 59% 30.16 in 10.0 mi SSE 8.1 mph - N/A   Clear
7:56 AM 41.5 °F 35.4 °F 26.6 °F 55% 30.15 in 10.0 mi South 10.4 mph - N/A   Clear
8:56 AM 45.5 °F 39.2 °F 27.9 °F 50% 30.14 in 10.0 mi South 13.8 mph 19.6 mph N/A   Clear
9:56 AM 52.9 °F - 29.3 °F 40% 30.10 in 10.0 mi South 19.6 mph 25.3 mph N/A   Clear
10:56 AM 57.4 °F - 30.0 °F 35% 30.08 in 10.0 mi South 15.0 mph 24.2 mph N/A   Clear
11:56 AM 62.2 °F - 29.7 °F 29% 30.04 in 10.0 mi South 19.6 mph - N/A   Clear
12:56 PM 63.7 °F - 30.0 °F 28% 30.01 in 10.0 mi South 16.1 mph 24.2 mph N/A   Clear
1:56 PM 64.8 °F - 30.0 °F 27% 29.98 in 10.0 mi South 15.0 mph 23.0 mph N/A   Clear
2:56 PM 63.3 °F - 28.8 °F 27% 29.96 in 10.0 mi South 11.5 mph 19.6 mph N/A   Clear
3:56 PM 60.4 °F - 30.4 °F 32% 29.95 in 10.0 mi SSE 10.4 mph - N/A   Clear
4:56 PM 58.8 °F - 30.6 °F 34% 29.95 in 10.0 mi SSE 12.7 mph - N/A   Clear
5:56 PM 55.0 °F - 30.6 °F 39% 29.96 in 10.0 mi SSE 9.2 mph - N/A   Clear
6:56 PM 54.1 °F - 30.9 °F 41% 29.98 in 10.0 mi SSE 15.0 mph - N/A   Partly Cloudy
7:56 PM 53.1 °F - 30.6 °F 42% 29.99 in 10.0 mi SSE 13.8 mph - N/A   Partly Cloudy
8:56 PM 51.4 °F - 30.2 °F 44% 30.01 in 10.0 mi South 10.4 mph - N/A   Clear
9:56 PM 49.6 °F - 30.2 °F 47% 30.00 in 10.0 mi SSW 5.8 mph - N/A   Overcast
10:56 PM 50.5 °F - 30.0 °F 45% 30.00 in 10.0 mi SSW 3.5 mph - N/A   Clear
11:56 PM 50.4 °F - 30.4 °F 46% 29.99 in 10.0 mi SW 6.9 mph - N/A   Partly Cloudy